Tracking 26321 objects as of 27-Nov-2022
HD Live streaming from Space Station
objects crossing your sky now

STARLINK-5244

Track STARLINK-5244 now!
10-day predictions
STARLINK-5244 is classified as:


NORAD ID: 54199
Int'l Code: 2022-141AU
Perigee: 354.5 km
Apogee: 359.4 km
Inclination: 53.2 °
Period: 91.5 minutes
Semi major axis: 6727 km
RCS: Unknown
Launch date: October 28, 2022
Source: United States (US)
Launch site: AIR FORCE WESTERN TEST RANGE (AFWTR)
aabbcc
Your satellite tracking list
Your tracking list is empty




NASA's NSSDC Master Catalog

Two Line Element Set (TLE):
1 54199U 22141AU  22330.91667824  .00011079  00000-0  83361-4 0  9994
2 54199  53.2173 356.0436 0003623   5.2581 100.7622 15.73168852  1301
Source of the keplerian elements: AFSPC